COSMOS 2084

Last updated on Wed Jul 02 2025 00:02:14 GMT+0000 (Coordinated Universal Time)

1 20663U 90055A 25182.50954293 .00001656 00000+0 13057-3 0 9997 2 20663 62.7892 110.9714 0058865 155.9950 204.3914 15.03741282898520
UTC large
Height (km)
Speed (km/s)
/
Latitude / Longitude
Inclination (degrees)
Orbital Period (minutes)
Azimuth
Elevation
Range (km)
Doppler Factor

Next 0 passes for location: London (51.5072 / 0.1276)

Sorry there are no passes over London.